TimeEDT,TemperatureF,Dew PointF,Humidity,Sea Level PressureIn,VisibilityMPH,Wind Direction,Wind SpeedMPH,Gust SpeedMPH,PrecipitationIn,Events,Conditions,WindDirDegrees,DateUTC
12:51 AM,64.0,46.0,52,29.94,10.0,SW,11.5,-,N/A,,Clear,230,2011-10-17 04:51:00
1:51 AM,63.0,46.0,54,29.92,10.0,SW,12.7,-,N/A,,Clear,220,2011-10-17 05:51:00
2:51 AM,62.1,46.9,58,29.91,10.0,SW,13.8,-,N/A,,Clear,220,2011-10-17 06:51:00
3:51 AM,62.1,46.9,58,29.91,10.0,WSW,10.4,-,N/A,,Clear,240,2011-10-17 07:51:00
4:51 AM,57.0,48.0,72,29.93,10.0,SW,4.6,-,N/A,,Clear,230,2011-10-17 08:51:00
5:51 AM,55.0,48.0,77,29.92,10.0,WSW,4.6,-,N/A,,Scattered Clouds,240,2011-10-17 09:51:00
6:51 AM,57.9,48.0,70,29.92,10.0,SSW,9.2,-,N/A,,Scattered Clouds,210,2011-10-17 10:51:00
7:51 AM,55.0,48.0,77,29.93,10.0,SW,5.8,-,N/A,,Scattered Clouds,230,2011-10-17 11:51:00
8:51 AM,61.0,50.0,67,29.94,10.0,SW,9.2,-,N/A,,Scattered Clouds,230,2011-10-17 12:51:00
9:51 AM,66.9,51.1,57,29.94,10.0,WSW,10.4,-,N/A,,Scattered Clouds,240,2011-10-17 13:51:00
10:51 AM,71.1,52.0,51,29.94,10.0,SW,10.4,-,N/A,,Mostly Cloudy,230,2011-10-17 14:51:00
11:51 AM,75.0,53.1,46,29.92,10.0,SW,9.2,-,N/A,,Mostly Cloudy,230,2011-10-17 15:51:00
12:51 PM,80.1,55.0,42,29.90,10.0,SW,10.4,-,N/A,,Scattered Clouds,230,2011-10-17 16:51:00
1:51 PM,82.0,53.1,37,29.86,10.0,SW,12.7,21.9,N/A,,Scattered Clouds,230,2011-10-17 17:51:00
2:51 PM,84.0,51.1,32,29.83,10.0,SW,16.1,20.7,N/A,,Scattered Clouds,230,2011-10-17 18:51:00
3:51 PM,84.0,52.0,33,29.83,10.0,SW,15.0,-,N/A,,Scattered Clouds,230,2011-10-17 19:51:00
4:51 PM,82.9,50.0,32,29.83,10.0,WSW,10.4,-,N/A,,Scattered Clouds,250,2011-10-17 20:51:00
5:51 PM,80.6,51.8,37,29.84,10.0,WSW,4.6,-,N/A,,Scattered Clouds,250,2011-10-17 21:51:00
6:51 PM,75.9,54.0,46,29.84,10.0,South,4.6,-,N/A,,Partly Cloudy,170,2011-10-17 22:51:00
7:51 PM,71.6,53.6,53,29.86,10.0,South,4.6,-,N/A,,Partly Cloudy,180,2011-10-17 23:51:00
8:51 PM,71.1,52.0,51,29.85,10.0,SSW,6.9,-,N/A,,Partly Cloudy,200,2011-10-18 00:51:00
9:51 PM,69.1,51.1,53,29.86,10.0,SW,6.9,-,N/A,,Partly Cloudy,220,2011-10-18 01:51:00
10:51 PM,66.9,51.1,57,29.87,10.0,SW,4.6,-,N/A,,Partly Cloudy,230,2011-10-18 02:51:00
11:51 PM,64.0,52.0,65,29.86,10.0,SW,5.8,-,N/A,,Partly Cloudy,230,2011-10-18 03:51:00